sat.trackr.live / text

‹ back to catalog

STARLINK-35488

NORAD 66254 · 2025-245W

PAYLOAD ACTIVE UNKNOWN

§ Identity

Operator
Country
US
Launch date
2025-10-29
Launch site
AFETR
Launch vehicle
Mass (kg)
RCS (m²)

Purposes: comms

External: N2YO · Heavens-Above · Gunter

§ Orbital elements

Epoch: 2026-05-25T02:12:58.741056Z

Period
94.01 min
Inclination
53.1607°
Eccentricity
0.0001434
Mean motion
15.31716237 rev/d
Perigee alt
469.7 km
Apogee alt
471.7 km
Semi-major
6,848.8 km
B*
5.1549e-4
RAAN
289.0385°
Arg perigee
76.1176°
Mean anomaly
283.9985°
Rev number
3,295

§ Raw data

STARLINK-354881 66254U 25245W   26145.09234654  .00015673  00000+0  51549-3 0  99902 66254  53.1607 289.0385 0001434  76.1176 283.9985 15.31716237 32951

JSON: /api/v1/satellites/66254 · /tle

For live sub-satellite position, see the globe view (requires WebGL).

§ Visibility from observer

Set your observer location to see the next 7 days of passes ≥ 10°. The values pass through the URL so the page stays shareable.

No JS? Fill the form by hand. The geolocation button needs JavaScript.